Project,Study,Ord_Occ,Event_Num,Cast_ID,Date_Time_UTC,Date_Time_PST,Lat_Dec,Lon_Dec,Sta_ID,Line,Sta,Depth,Pressure,PrQ,Temp1,Temp1Q,Temp2,Temp2Q,TempAve,Salt1,Salt1Q,Salt1_Corr,Salt2,Salt2Q,Salt2_Corr,SaltAve_Corr,Ox1,Ox1Q,Ox1_CruiseCorr,Ox1_StaCorr,Ox2,Ox2Q,Ox2_CruiseCorr,Ox2_StaCorr,OxAve_StaCorr,Ox1uM,Ox1uM_CruiseCorr,Ox1uM_StaCorr,Ox2uM,Ox2uM_CruiseCorr,Ox2uM_StaCorr,OxAveuM_StaCorr,FluorV,FluorQ,EstChl_CruiseCorr,EstChl_StaCorr,ISUSV,ISUSQ,EstNO3_CruiseCorr,EstNO3_StaCorr,SigThetaTS1,SigThetaTS1Q,SigThetaTS2,SigThetaTS2Q,BAT,XMiss,TransQ,pH,pHQ,SPAR,SPARQ,PAR,PARQ,PoT1,PoT2,DynHt,SVA,OxSat1,OxSat2,BTL_Depth,BTL_Temp,SaltB,OxB,OxBuM,Chl-a,Phaeo,NO3,NO2,NH4,PO4,SIL
CalCOFI,2105SH,022,,2105_022d,09-May-2021 00:18:53,08-May-2021 16:18:53,33.25206,-118.24969,090.0 035.0,090.0,035.0,3.000,3.021,,17.0970,,17.1054,,17.1012,33.5162,,33.5174,33.5221,,33.5240,33.5207,5.7593,,6.0892,,5.8057,,6.0729,,,251.096,264.9946,266.8427,253.119,276.3129,267.2000,267.0214,0.0662,,0.2700,0.2579,2.7367,,2.9992,,24.3529,,24.3555,,,,,,,,,,,17.0965,17.1049,-0.0002,356.500,104.459,105.322,3,16.584,33.5411,6.228,271.49,0.692,0.164,0.74,0.066,0.00,0.28,0.97
CalCOFI,2105SH,022,,2105_022d,09-May-2021 00:19:02,08-May-2021 16:19:02,33.25206,-118.24971,090.0 035.0,090.0,035.0,4.000,4.029,,17.0907,,17.0826,,17.0867,33.5244,,33.5256,33.5264,,33.5283,33.5270,5.7439,,6.0731,,5.8134,,6.0809,,,250.421,264.2889,266.1304,253.450,275.5839,267.5482,266.8393,0.0629,,0.2457,0.2463,2.7377,,2.9992,,24.3607,,24.3642,,,,,,,,,,,17.0900,17.0820,0.0039,355.793,104.172,105.417,,,,,,,,,,,,
CalCOFI,2105SH,022,,2105_022d,09-May-2021 00:19:04,08-May-2021 16:19:04,33.25206,-118.24970,090.0 035.0,090.0,035.0,5.000,5.036,,17.0054,,17.0161,,17.0108,33.5265,,33.5277,33.5276,,33.5295,33.5286,5.7461,,6.0754,,5.8086,,6.0759,,,250.513,264.3851,266.2275,253.236,275.6832,267.3231,266.7753,0.0628,,0.2450,0.2459,2.7377,,2.9992,,24.3825,,24.3808,,,,,,,,,,,17.0046,17.0153,0.0075,353.752,104.043,105.196,,,,,,,,,,,,
CalCOFI,2105SH,022,,2105_022d,09-May-2021 00:19:07,08-May-2021 16:19:07,33.25206,-118.24970,090.0 035.0,090.0,035.0,6.000,6.043,,16.9767,,16.9882,,16.9825,33.5273,,33.5285,33.5226,,33.5245,33.5265,5.7334,,6.0621,,5.8209,,6.0887,,,249.958,263.8049,265.6419,253.774,275.0838,267.8889,266.7654,0.0619,,0.2384,0.2427,2.7385,,2.9992,,24.3899,,24.3836,,,,,,,,,,,16.9757,16.9872,0.0110,353.082,103.756,105.359,,,,,,,,,,,,
CalCOFI,2105SH,022,,2105_022d,09-May-2021 00:19:09,08-May-2021 16:19:09,33.25206,-118.24970,090.0 035.0,090.0,035.0,7.000,7.050,,16.8308,,16.7733,,16.8021,33.5286,,33.5298,33.5231,,33.5250,33.5274,5.7823,,6.1132,,5.8843,,6.1544,,,252.081,266.0243,267.8820,256.525,277.3767,270.7823,269.3322,0.0616,,0.2362,0.2417,2.7400,,2.9992,,24.4251,,24.4343,,,,,,,,,,,16.8297,16.7721,0.0145,349.758,104.346,106.066,,,,,,,,,,,,
CalCOFI,2105SH,022,,2105_022d,09-May-2021 00:19:10,08-May-2021 16:19:10,33.25206,-118.24972,090.0 035.0,090.0,035.0,8.000,8.057,,16.6668,,16.6550,,16.6609,33.5221,,33.5233,33.5137,,33.5156,33.5195,5.8516,,6.1857,,5.8933,,6.1637,,,255.093,269.1730,271.0602,256.913,280.6296,271.1904,271.1253,0.0671,,0.2766,0.2611,2.7417,,2.9992,,24.4584,,24.4547,,,,,,,,,,,16.6655,16.6537,0.0180,346.617,105.258,105.979,,,,,,,,,,,,
CalCOFI,2105SH,022,,2105_022d,09-May-2021 00:19:12,08-May-2021 16:19:12,33.25206,-118.24972,090.0 035.0,090.0,035.0,9.000,9.064,,16.5418,,16.5235,,16.5327,33.5171,,33.5183,33.5130,,33.5149,33.5166,5.8474,,6.1813,,5.9436,,6.2158,,,254.903,268.9744,270.8597,259.097,280.4244,273.4874,272.1736,0.0826,,0.3896,0.3158,2.7446,,2.9992,,24.4835,,24.4846,,,,,,,,,,,16.5404,16.5220,0.0215,344.249,104.924,106.610,,,,,,,,,,,,
CalCOFI,2105SH,022,,2105_022d,09-May-2021 00:19:14,08-May-2021 16:19:14,33.25206,-118.24972,090.0 035.0,090.0,035.0,10.000,10.071,,15.9927,,15.9045,,15.9486,33.5309,,33.5321,33.5051,,33.5070,33.5196,5.9767,,6.3165,,6.0383,,6.3139,,,260.505,274.8307,276.7709,263.189,286.4746,277.7912,277.2811,0.1429,,0.8186,0.5287,2.7488,,2.9992,,24.6191,,24.6193,,,,,,,,,,,15.9911,15.9029,0.0250,331.364,106.106,106.997,,,,,,,,,,,,
CalCOFI,2105SH,022,,2105_022d,09-May-2021 00:19:16,08-May-2021 16:19:16,33.25206,-118.24972,090.0 035.0,090.0,035.0,11.000,11.079,,14.6573,,14.5884,,14.6229,33.5814,,33.5826,33.5348,,33.5367,33.5597,6.1535,,6.5014,,6.1812,,6.4619,,,268.123,282.7946,284.8092,269.338,294.7021,284.2585,284.5339,0.2385,,1.4628,0.8662,2.7515,,2.9992,,24.9520,,24.9308,,,,,,,,,,,14.6557,14.5868,0.0281,299.668,106.422,106.725,11,14.382,,,285.56,1.434,0.491,4.02,0.172,0.00,0.51,2.78
CalCOFI,2105SH,022,,2105_022d,09-May-2021 00:19:17,08-May-2021 16:19:17,33.25206,-118.24972,090.0 035.0,090.0,035.0,12.000,12.086,,13.8427,,13.8532,,13.8480,33.6071,,33.6083,33.5696,,33.5715,33.5899,6.2123,,6.5629,,6.2451,,6.5281,,,270.634,285.4196,287.4588,272.075,297.4140,287.1371,287.2980,0.3068,,1.8963,1.1073,2.7531,,2.9992,,25.1436,,25.1125,,,,,,,,,,,13.8410,13.8515,0.0310,281.447,105.708,106.265,,,,,,,,,,,,
CalCOFI,2105SH,022,,2105_022d,09-May-2021 00:19:19,08-May-2021 16:19:19,33.25206,-118.24972,090.0 035.0,090.0,035.0,13.000,13.093,,13.6657,,13.6627,,13.6642,33.6038,,33.6050,33.5833,,33.5852,33.5951,6.1782,,6.5273,,6.2404,,6.5232,,,269.144,283.8619,285.8866,271.857,295.8048,286.9078,286.3972,0.3079,,1.9031,1.1111,2.7536,,2.9992,,25.1776,,25.1624,,,,,,,,,,,13.6639,13.6608,0.0339,278.241,104.749,105.783,,,,,,,,,,,,
CalCOFI,2105SH,022,,2105_022d,09-May-2021 00:19:21,08-May-2021 16:19:21,33.25206,-118.24972,090.0 035.0,090.0,035.0,14.000,14.100,,13.6469,,13.6433,,13.6451,33.6034,,33.6046,33.5882,,33.5901,33.5974,6.1705,,6.5192,,6.2311,,6.5136,,,268.808,283.5107,285.5320,271.450,295.4419,286.4798,286.0059,0.3476,,2.1446,1.2513,2.7523,,2.9992,,25.1811,,25.1701,,,,,,,,,,,13.6449,13.6413,0.0367,277.933,104.578,105.587,,,,,,,,,,,,
CalCOFI,2105SH,022,,2105_022d,09-May-2021 00:19:23,08-May-2021 16:19:23,33.25206,-118.24972,090.0 035.0,090.0,035.0,15.000,15.107,,13.6291,,13.6271,,13.6281,33.6056,,33.6068,33.5938,,33.5957,33.6013,6.1349,,6.4820,,6.1951,,6.4763,,,267.255,281.8872,283.8933,269.877,293.7646,284.8253,284.3593,0.3274,,2.0227,1.1800,2.7480,,2.9992,,25.1865,,25.1778,,,,,,,,,,,13.6270,13.6250,0.0395,277.451,103.938,104.945,,,,,,,,,,,,
CalCOFI,2105SH,022,,2105_022d,09-May-2021 00:19:24,08-May-2021 16:19:24,33.25206,-118.24972,090.0 035.0,090.0,035.0,16.000,16.115,,13.6038,,13.6032,,13.6035,33.6087,,33.6099,33.5978,,33.5997,33.6048,6.0608,,6.4045,,6.1384,,6.4176,,,264.026,278.5116,280.4861,267.406,290.2773,282.2265,281.3563,0.3391,,2.0935,1.2213,2.7407,,2.9992,,25.1941,,25.1858,,,,,,,,,,,13.6015,13.6010,0.0422,276.752,102.632,103.937,,,,,,,,,,,,
CalCOFI,2105SH,022,,2105_022d,09-May-2021 00:19:26,08-May-2021 16:19:26,33.25206,-118.24972,090.0 035.0,090.0,035.0,17.000,17.122,,13.5227,,13.5188,,13.5208,33.6133,,33.6145,33.6031,,33.6050,33.6098,6.0617,,6.4054,,6.1250,,6.4037,,,264.059,278.5461,280.5210,266.819,290.3130,281.6091,281.0651,0.3486,,2.1506,1.2548,2.7321,,2.9992,,25.2142,,25.2071,,,,,,,,,,,13.5203,13.5165,0.0450,274.864,102.480,103.535,,,,,,,,,,,,
CalCOFI,2105SH,022,,2105_022d,09-May-2021 00:19:28,08-May-2021 16:19:28,33.25206,-118.24972,090.0 035.0,090.0,035.0,18.000,18.129,,13.4828,,13.4807,,13.4818,33.6155,,33.6167,33.6067,,33.6086,33.6127,6.0411,,6.3839,,6.0782,,6.3552,,,263.159,277.6052,279.5713,264.777,289.3410,279.4614,279.5164,0.3571,,2.2012,1.2848,2.7208,,2.9992,,25.2240,,25.2176,,,,,,,,,,,13.4803,13.4782,0.0478,273.960,102.050,102.666,,,,,,,,,,,,
CalCOFI,2105SH,022,,2105_022d,09-May-2021 00:19:30,08-May-2021 16:19:30,33.25206,-118.24972,090.0 035.0,090.0,035.0,19.000,19.136,,13.4242,,13.4220,,13.4231,33.6169,,33.6181,33.6077,,33.6096,33.6139,5.9702,,6.3097,,6.0007,,6.2749,,,260.064,274.3697,276.3055,261.397,285.9983,275.9065,276.1060,0.4062,,2.4872,1.4581,2.7055,,2.9992,,25.2370,,25.2303,,,,,,,,,,,13.4216,13.4193,0.0505,272.754,100.731,101.236,,,,,,,,,,,,
CalCOFI,2105SH,022,,2105_022d,09-May-2021 00:19:31,08-May-2021 16:19:31,33.25206,-118.24972,090.0 035.0,090.0,035.0,20.000,20.143,,13.2812,,13.2791,,13.2802,33.6160,,33.6172,33.6052,,33.6071,33.6122,5.8905,,6.2264,,5.9373,,6.2093,,,256.586,270.7338,272.6356,258.629,282.2421,272.9952,272.8154,0.4234,,2.5846,1.5189,2.6866,,2.9992,,25.2651,,25.2572,,,,,,,,,,,13.2785,13.2763,0.0533,270.097,99.095,99.872,,,,,,,,,,,,
CalCOFI,2105SH,022,,2105_022d,09-May-2021 00:19:33,08-May-2021 16:19:33,33.25206,-118.24972,090.0 035.0,090.0,035.0,21.000,21.151,,13.2184,,13.2180,,13.2182,33.6084,,33.6096,33.6007,,33.6026,33.6061,5.8002,,6.1319,,5.8503,,6.1191,,,252.652,266.6212,268.4846,254.837,277.9934,269.0069,268.7458,0.4523,,2.7451,1.6209,2.6674,,2.9992,,25.2719,,25.2661,,,,,,,,,,,13.2155,13.2151,0.0560,269.475,97.446,98.282,,,,,,,,,,,,
CalCOFI,2105SH,022,,2105_022d,09-May-2021 00:19:35,08-May-2021 16:19:35,33.25206,-118.24972,090.0 035.0,090.0,035.0,22.000,22.158,,13.0966,,13.0946,,13.0956,33.6026,,33.6038,33.5919,,33.5938,33.5988,5.7567,,6.0865,,5.8206,,6.0884,,,250.754,264.6370,266.4818,253.537,275.9435,267.6396,267.0607,0.4827,,2.9097,1.7282,2.6470,,2.9992,,25.2918,,25.2839,,,,,,,,,,,13.0936,13.0916,0.0587,267.609,96.470,97.529,,,,,,,,,,,,
CalCOFI,2105SH,022,,2105_022d,09-May-2021 00:19:37,08-May-2021 16:19:37,33.25206,-118.24972,090.0 035.0,090.0,035.0,23.000,23.165,,13.0020,,13.0015,,13.0018,33.6011,,33.6023,33.5942,,33.5961,33.5992,5.7066,,6.0341,,5.7585,,6.0241,,,248.564,262.3476,264.1710,250.829,273.5783,264.7915,264.4813,0.4985,,2.9934,1.7840,2.6224,,2.9992,,25.3095,,25.3042,,,,,,,,,,,12.9988,12.9984,0.0614,265.953,95.442,96.306,,,,,,,,,,,,
CalCOFI,2105SH,022,,2105_022d,09-May-2021 00:19:38,08-May-2021 16:19:38,33.25207,-118.24972,090.0 035.0,090.0,035.0,24.000,24.172,,12.9645,,12.9626,,12.9636,33.5995,,33.6007,33.5921,,33.5940,33.5974,5.6019,,5.9246,,5.6709,,5.9333,,,244.005,257.5816,259.3604,247.009,268.6546,260.7738,260.0671,0.4892,,2.9443,1.7511,2.5955,,2.9992,,25.3157,,25.3103,,,,,,,,,,,12.9613,12.9594,0.0641,265.386,93.619,94.763,,,,,,,,,,,,
CalCOFI,2105SH,022,,2105_022d,09-May-2021 00:19:40,08-May-2021 16:19:40,33.25208,-118.24972,090.0 035.0,090.0,035.0,25.000,25.180,,12.8798,,12.8787,,12.8793,33.5974,,33.5986,33.5913,,33.5932,33.5959,5.5304,,5.8498,,5.5845,,5.8438,,,240.884,254.3189,256.0672,243.243,265.2839,256.8129,256.4401,0.5193,,3.1019,1.8574,2.5703,,2.9992,,25.3308,,25.3263,,,,,,,,,,,12.8764,12.8753,0.0667,263.969,92.260,93.157,,,,,,,,,,,,
CalCOFI,2105SH,022,,2105_022d,09-May-2021 00:19:42,08-May-2021 16:19:42,33.25208,-118.24972,090.0 035.0,090.0,035.0,26.000,26.187,,12.8184,,12.8161,,12.8173,33.6014,,33.6026,33.5949,,33.5968,33.5997,5.4528,,5.7686,,5.4927,,5.7487,,,237.502,250.7834,252.4986,239.240,261.6313,252.6027,252.5507,0.4697,,2.8399,1.6823,2.5423,,2.9992,,25.3460,,25.3414,,,,,,,,,,,12.8149,12.8126,0.0694,262.548,90.853,91.509,,,,,,,,,,,,
CalCOFI,2105SH,022,,2105_022d,09-May-2021 00:19:44,08-May-2021 16:19:44,33.25208,-118.24972,090.0 035.0,090.0,035.0,27.000,27.194,,12.7403,,12.7378,,12.7391,33.6036,,33.6048,33.5979,,33.5998,33.6023,5.3950,,5.7082,,5.4373,,5.6914,,,234.980,248.1469,249.8374,236.824,258.9076,250.0617,249.9496,0.5468,,3.2421,1.9545,2.5157,,2.9992,,25.3631,,25.3591,,,,,,,,,,,12.7367,12.7341,0.0720,260.950,89.745,90.441,,,,,,,,,,,,
CalCOFI,2105SH,022,,2105_022d,09-May-2021 00:19:45,08-May-2021 16:19:45,33.25208,-118.24973,090.0 035.0,090.0,035.0,28.000,28.201,,12.6785,,12.6761,,12.6773,33.6058,,33.6070,33.6005,,33.6024,33.6047,5.3412,,5.6519,,5.4046,,5.6575,,,232.634,245.6944,247.3620,235.396,256.3739,248.5598,247.9609,0.4606,,2.7905,1.6502,2.4897,,2.9992,,25.3769,,25.3732,,,,,,,,,,,12.6748,12.6723,0.0746,259.659,88.738,89.783,,,,,,,,,,,,
CalCOFI,2105SH,022,,2105_022d,09-May-2021 00:19:48,08-May-2021 16:19:48,33.25208,-118.24974,090.0 035.0,090.0,035.0,29.000,29.209,,12.6357,,12.6362,,12.6360,33.6055,,33.6067,33.6014,,33.6033,33.6050,5.3021,,5.6110,,5.3591,,5.6104,,,230.928,243.9109,245.5618,233.415,254.5314,246.4762,246.0190,0.4894,,2.9453,1.7518,2.4560,,2.9992,,25.3850,,25.3817,,,,,,,,,,,12.6318,12.6324,0.0772,258.909,88.009,88.956,,,,,,,,,,,,
CalCOFI,2105SH,022,,2105_022d,09-May-2021 00:19:50,08-May-2021 16:19:50,33.25208,-118.24974,090.0 035.0,090.0,035.0,30.000,30.216,,12.6005,,12.5989,,12.5997,33.6041,,33.6053,33.6001,,33.6020,33.6037,5.1482,,5.4501,,5.1660,,5.4103,,,224.225,236.9036,238.4890,225.002,247.2921,237.6278,238.0584,0.4788,,2.8888,1.7144,2.4154,,2.9992,,25.3908,,25.3880,,,,,,,,,,,12.5965,12.5949,0.0799,258.389,85.392,85.683,,,,,,,,,,,,
CalCOFI,2105SH,022,,2105_022d,09-May-2021 00:19:52,08-May-2021 16:19:52,33.25209,-118.24974,090.0 035.0,090.0,035.0,31.000,31.223,,12.5194,,12.5142,,12.5168,33.6083,,33.6095,33.6010,,33.6029,33.6062,5.0012,,5.2964,,5.0332,,5.2728,,,217.819,230.2068,231.7295,219.214,240.3736,231.5403,231.6349,0.3674,,2.2622,1.3212,2.3903,,2.9992,,25.4098,,25.4052,,,,,,,,,,,12.5153,12.5101,0.0824,256.599,82.817,83.334,31,12.454,,,235.4,0.948,0.534,12.18,0.353,0.00,1.06,9.64
CalCOFI,2105SH,022,,2105_022d,09-May-2021 00:19:53,08-May-2021 16:19:53,33.25210,-118.24974,090.0 035.0,090.0,035.0,32.000,32.230,,12.3594,,12.3572,,12.3583,33.6311,,33.6323,33.6247,,33.6266,33.6295,4.9503,,5.2431,,5.0117,,5.2505,,,215.592,227.8787,229.3796,218.265,237.9685,230.5421,229.9609,0.3315,,2.0476,1.1944,2.3669,,2.9992,,25.4584,,25.4538,,,,,,,,,,,12.3552,12.3530,0.0850,251.998,81.713,82.718,,,,,,,,,,,,
CalCOFI,2105SH,022,,2105_022d,09-May-2021 00:19:55,08-May-2021 16:19:55,33.25210,-118.24974,090.0 035.0,090.0,035.0,33.000,33.238,,12.3073,,12.3077,,12.3075,33.6322,,33.6334,33.6281,,33.6300,33.6317,4.9301,,5.2220,,4.9850,,5.2229,,,214.712,226.9587,228.4510,217.103,237.0181,229.3200,228.8855,0.2512,,1.5451,0.9110,2.3356,,2.9992,,25.4693,,25.4659,,,,,,,,,,,12.3029,12.3034,0.0875,250.989,81.292,82.196,,,,,,,,,,,,
CalCOFI,2105SH,022,,2105_022d,09-May-2021 00:19:57,08-May-2021 16:19:57,33.25210,-118.24972,090.0 035.0,090.0,035.0,34.000,34.245,,12.2970,,12.2970,,12.2970,33.6329,,33.6341,33.6297,,33.6316,33.6329,4.8481,,5.1362,,4.8968,,5.1315,,,211.139,223.2235,224.6809,213.260,233.1592,225.2781,224.9795,0.2264,,1.3837,0.8234,2.3010,,2.9992,,25.4718,,25.4693,,,,,,,,,,,12.2925,12.2926,0.0901,250.776,79.922,80.724,,,,,,,,,,,,
CalCOFI,2105SH,022,,2105_022d,09-May-2021 00:19:59,08-May-2021 16:19:59,33.25210,-118.24972,090.0 035.0,090.0,035.0,35.000,35.252,,12.2446,,12.2425,,12.2436,33.6361,,33.6373,33.6312,,33.6331,33.6352,4.8031,,5.0892,,4.8691,,5.1028,,,209.175,221.1703,222.6085,212.051,231.0381,224.0065,223.3075,0.2459,,1.5109,0.8923,2.2773,,2.9992,,25.4843,,25.4809,,,,,,,,,,,12.2400,12.2379,0.0926,249.609,79.095,80.176,,,,,,,,,,,,
CalCOFI,2105SH,022,,2105_022d,09-May-2021 00:20:01,08-May-2021 16:20:01,33.25210,-118.24973,090.0 035.0,090.0,035.0,36.000,36.260,,12.1869,,12.1864,,12.1867,33.6357,,33.6369,33.6317,,33.6336,33.6353,4.7881,,5.0735,,4.8402,,5.0729,,,208.520,220.4856,221.9174,210.791,230.3307,222.6813,222.2994,0.2235,,1.3647,0.8132,2.2497,,2.9992,,25.4950,,25.4920,,,,,,,,,,,12.1822,12.1817,0.0951,248.612,78.753,79.607,,,,,,,,,,,,
CalCOFI,2105SH,022,,2105_022d,09-May-2021 00:20:04,08-May-2021 16:20:04,33.25210,-118.24973,090.0 035.0,090.0,035.0,37.000,37.267,,12.1295,,12.1293,,12.1294,33.6313,,33.6325,33.6272,,33.6291,33.6308,4.6326,,4.9109,,4.6466,,4.8723,,,201.748,213.4062,214.7717,202.359,223.0169,213.8129,214.2923,0.2281,,1.3949,0.8294,2.2069,,2.9992,,25.5025,,25.4994,,,,,,,,,,,12.1247,12.1245,0.0976,247.918,76.102,76.330,,,,,,,,,,,,
CalCOFI,2105SH,022,,2105_022d,09-May-2021 00:20:05,08-May-2021 16:20:05,33.25211,-118.24974,090.0 035.0,090.0,035.0,38.000,38.274,,12.0250,,12.0228,,12.0239,33.6285,,33.6297,33.6227,,33.6246,33.6272,4.5128,,4.7856,,4.5489,,4.7712,,,196.526,207.9471,209.2616,198.099,217.3771,209.3324,209.2970,0.1886,,1.1320,0.6900,2.1868,,2.9992,,25.5201,,25.5160,,,,,,,,,,,12.0201,12.0179,0.1001,246.262,73.970,74.556,,,,,,,,,,,,
CalCOFI,2105SH,022,,2105_022d,09-May-2021 00:20:06,08-May-2021 16:20:06,33.25212,-118.24974,090.0 035.0,090.0,035.0,39.000,39.282,,11.9954,,11.9944,,11.9949,33.6329,,33.6341,33.6285,,33.6304,33.6323,4.4510,,4.7210,,4.5229,,4.7442,,,193.832,205.1308,206.4189,196.966,214.4676,208.1408,207.2799,0.1695,,1.0022,0.6226,2.1706,,2.9992,,25.5292,,25.5260,,,,,,,,,,,11.9904,11.9894,0.1026,245.425,72.914,74.089,,,,,,,,,,,,
CalCOFI,2105SH,022,,2105_022d,09-May-2021 00:20:09,08-May-2021 16:20:09,33.25212,-118.24975,090.0 035.0,090.0,035.0,40.000,40.289,,11.9377,,11.9379,,11.9378,33.6370,,33.6382,33.6338,,33.6357,33.6370,4.4426,,4.7122,,4.5108,,4.7317,,,193.465,204.7471,206.0317,196.433,214.0712,207.5802,206.8060,0.1391,,0.7920,0.5153,2.1415,,2.9992,,25.5432,,25.5407,,,,,,,,,,,11.9325,11.9328,0.1050,244.110,72.690,73.804,,,,,,,,,,,,
CalCOFI,2105SH,022,,2105_022d,09-May-2021 00:20:11,08-May-2021 16:20:11,33.25212,-118.24976,090.0 035.0,090.0,035.0,41.000,41.296,,11.9236,,11.9235,,11.9236,33.6380,,33.6392,33.6357,,33.6376,33.6384,4.4118,,4.6800,,4.4754,,4.6950,,,192.122,203.3431,204.6146,194.894,212.6208,205.9615,205.2881,0.1449,,0.8325,0.5357,2.1125,,2.9992,,25.5467,,25.5449,,,,,,,,,,,11.9184,11.9183,0.1075,243.805,72.165,73.205,,,,,,,,,,,,
CalCOFI,2105SH,022,,2105_022d,09-May-2021 00:20:12,08-May-2021 16:20:12,33.25212,-118.24976,090.0 035.0,090.0,035.0,42.000,42.303,,11.9033,,11.9028,,11.9031,33.6389,,33.6401,33.6364,,33.6383,33.6392,4.3882,,4.6553,,4.4343,,4.6524,,,191.094,202.2685,203.5298,193.101,211.5106,204.0757,203.8028,0.1291,,0.7219,0.4800,2.0949,,2.9992,,25.5513,,25.5493,,,,,,,,,,,11.8980,11.8974,0.1099,243.396,71.749,72.500,,,,,,,,,,,,
CalCOFI,2105SH,022,,2105_022d,09-May-2021 00:20:14,08-May-2021 16:20:14,33.25212,-118.24976,090.0 035.0,090.0,035.0,43.000,43.311,,11.8409,,11.8398,,11.8404,33.6378,,33.6390,33.6340,,33.6359,33.6375,4.3511,,4.6165,,4.3957,,4.6125,,,189.477,200.5781,201.8236,191.421,209.7642,202.3088,202.0662,0.1245,,0.6895,0.4637,2.0747,,2.9992,,25.5621,,25.5593,,,,,,,,,,,11.8354,11.8344,0.1124,242.387,71.049,71.774,,,,,,,,,,,,
CalCOFI,2105SH,022,,2105_022d,09-May-2021 00:20:16,08-May-2021 16:20:16,33.25212,-118.24976,090.0 035.0,090.0,035.0,44.000,44.318,,11.7782,,11.7773,,11.7778,33.6380,,33.6392,33.6346,,33.6365,33.6379,4.3015,,4.5646,,4.3727,,4.5886,,,187.313,198.3158,199.5402,190.414,207.4271,201.2497,200.3950,0.1194,,0.6535,0.4457,2.0560,,2.9992,,25.5740,,25.5715,,,,,,,,,,,11.7726,11.7717,0.1148,241.273,70.145,71.304,,,,,,,,,,,,
CalCOFI,2105SH,022,,2105_022d,09-May-2021 00:20:18,08-May-2021 16:20:18,33.25212,-118.24976,090.0 035.0,090.0,035.0,45.000,45.325,,11.7559,,11.7561,,11.7560,33.6412,,33.6424,33.6392,,33.6411,33.6418,4.2789,,4.5410,,4.3466,,4.5616,,,186.327,197.2850,198.4998,189.276,206.3622,200.0528,199.2763,0.1404,,0.8011,0.5199,2.0380,,2.9992,,25.5806,,25.5790,,,,,,,,,,,11.7502,11.7504,0.1172,240.667,69.745,70.849,,,,,,,,,,,,
CalCOFI,2105SH,022,,2105_022d,09-May-2021 00:20:20,08-May-2021 16:20:20,33.25212,-118.24976,090.0 035.0,090.0,035.0,46.000,46.333,,11.7302,,11.7295,,11.7299,33.6417,,33.6429,33.6381,,33.6400,33.6415,4.1995,,4.4579,,4.2199,,4.4304,,,182.870,193.6711,194.8520,183.761,202.6286,194.2523,194.5522,0.0955,,0.4829,0.3614,2.0165,,2.9992,,25.5858,,25.5832,,,,,,,,,,,11.7243,11.7237,0.1197,240.199,68.415,68.746,,,,,,,,,,,,
CalCOFI,2105SH,022,,2105_022d,09-May-2021 00:20:22,08-May-2021 16:20:22,33.25212,-118.24976,090.0 035.0,090.0,035.0,47.000,47.340,,11.5982,,11.5955,,11.5969,33.6368,,33.6380,33.6310,,33.6329,33.6355,4.0949,,4.3485,,4.1345,,4.3419,,,178.312,188.9062,190.0425,180.038,197.7060,190.3367,190.1896,0.0796,,0.3678,0.3052,1.9999,,2.9992,,25.6064,,25.6024,,,,,,,,,,,11.5923,11.5896,0.1221,238.249,66.523,67.160,,,,,,,,,,,,
CalCOFI,2105SH,022,,2105_022d,09-May-2021 00:20:23,08-May-2021 16:20:23,33.25212,-118.24976,090.0 035.0,090.0,035.0,48.000,48.348,,11.5099,,11.5083,,11.5091,33.6372,,33.6384,33.6324,,33.6343,33.6364,4.0563,,4.3082,,4.0930,,4.2989,,,176.627,187.1447,188.2646,178.227,195.8862,188.4319,188.3483,0.0725,,0.3161,0.2802,1.9846,,2.9992,,25.6231,,25.6196,,,,,,,,,,,11.5039,11.5023,0.1245,236.688,65.773,66.364,,,,,,,,,,,,
CalCOFI,2105SH,022,,2105_022d,09-May-2021 00:20:25,08-May-2021 16:20:25,33.25212,-118.24976,090.0 035.0,090.0,035.0,49.000,49.355,,11.4543,,11.4530,,11.4537,33.6393,,33.6405,33.6349,,33.6368,33.6387,4.0055,,4.2551,,4.0680,,4.2730,,,174.412,184.8291,185.9273,177.135,193.4939,187.2834,186.6054,0.0714,,0.3081,0.2763,1.9670,,2.9992,,25.6349,,25.6318,,,,,,,,,,,11.4482,11.4468,0.1269,235.580,64.873,65.882,,,,,,,,,,,,
CalCOFI,2105SH,022,,2105_022d,09-May-2021 00:20:27,08-May-2021 16:20:27,33.25212,-118.24978,090.0 035.0,090.0,035.0,50.000,50.362,,11.4095,,11.4096,,11.4096,33.6418,,33.6430,33.6385,,33.6404,33.6417,3.9875,,4.2362,,4.0485,,4.2528,,,173.630,184.0116,185.1022,176.286,192.6494,186.3905,185.7464,0.0638,,0.2523,0.2495,1.9470,,2.9992,,25.6450,,25.6425,,,,,,,,,,,11.4033,11.4034,0.1292,234.638,64.522,65.508,,,,,,,,,,,,
CalCOFI,2105SH,022,,2105_022d,09-May-2021 00:20:28,08-May-2021 16:20:28,33.25212,-118.24978,090.0 035.0,090.0,035.0,51.000,51.370,,11.3927,,11.3927,,11.3927,33.6436,,33.6448,33.6409,,33.6428,33.6438,3.9446,,4.1914,,3.9904,,4.1927,,,171.760,182.0567,183.1290,173.754,190.6298,183.7274,183.4282,0.0618,,0.2376,0.2424,1.9261,,2.9992,,25.6496,,25.6475,,,,,,,,,,,11.3863,11.3863,0.1316,234.230,63.806,64.546,51,11.29,,,177.43,0.127,0.16,18,0.038,0.00,1.45,16.33
CalCOFI,2105SH,022,,2105_022d,09-May-2021 00:20:31,08-May-2021 16:20:31,33.25212,-118.24978,090.0 035.0,090.0,035.0,52.000,52.377,,11.3285,,11.3269,,11.3277,33.6467,,33.6479,33.6425,,33.6444,33.6462,3.8541,,4.0967,,3.8955,,4.0944,,,167.818,177.9357,178.9695,169.619,186.3724,179.3784,179.1740,0.0615,,0.2354,0.2413,1.9014,,2.9992,,25.6636,,25.6607,,,,,,,,,,,11.3220,11.3205,0.1339,232.911,62.259,62.923,,,,,,,,,,,,
CalCOFI,2105SH,022,,2105_022d,09-May-2021 00:20:32,08-May-2021 16:20:32,33.25212,-118.24978,090.0 035.0,090.0,035.0,53.000,53.384,,11.2182,,11.2168,,11.2175,33.6513,,33.6525,33.6472,,33.6491,33.6508,3.7972,,4.0372,,3.8434,,4.0404,,,165.334,175.3390,176.3484,167.346,183.6897,176.9878,176.6681,0.0622,,0.2406,0.2438,1.8789,,2.9992,,25.6872,,25.6843,,,,,,,,,,,11.2117,11.2103,0.1363,230.681,61.197,61.938,,,,,,,,,,,,
CalCOFI,2105SH,022,,2105_022d,09-May-2021 00:20:34,08-May-2021 16:20:34,33.25212,-118.24978,090.0 035.0,090.0,035.0,54.000,54.392,,11.1905,,11.1905,,11.1905,33.6665,,33.6677,33.6644,,33.6663,33.6670,3.7320,,3.9690,,3.7756,,3.9702,,,162.496,172.3721,173.3538,164.393,180.6246,173.8819,173.6179,0.0596,,0.2214,0.2346,1.8583,,2.9992,,25.7041,,25.7025,,,,,,,,,,,11.1838,11.1839,0.1386,229.097,60.117,60.819,,,,,,,,,,,,
CalCOFI,2105SH,022,,2105_022d,09-May-2021 00:20:36,08-May-2021 16:20:36,33.25213,-118.24978,090.0 035.0,090.0,035.0,55.000,55.399,,11.1697,,11.1697,,11.1697,33.6814,,33.6826,33.6784,,33.6803,33.6815,3.6735,,3.9078,,3.7309,,3.9239,,,159.943,169.7032,170.6600,162.445,177.8674,171.8331,171.2466,0.0556,,0.1919,0.2205,1.8390,,2.9992,,25.7195,,25.7172,,,,,,,,,,,11.1629,11.1629,0.1409,227.663,59.153,60.078,,,,,,,,,,,,
CalCOFI,2105SH,022,,2105_022d,09-May-2021 00:20:38,08-May-2021 16:20:38,33.25214,-118.24978,090.0 035.0,090.0,035.0,56.000,56.407,,11.1487,,11.1486,,11.1487,33.6925,,33.6937,33.6906,,33.6925,33.6931,3.6548,,3.8883,,3.7204,,3.9130,,,159.128,168.8512,169.8000,161.986,176.9872,171.3504,170.5752,0.0560,,0.1949,0.2219,1.8235,,2.9992,,25.7320,,25.7304,,,,,,,,,,,11.1418,11.1418,0.1432,226.499,58.830,59.886,,,,,,,,,,,,
CalCOFI,2105SH,022,,2105_022d,09-May-2021 00:20:39,08-May-2021 16:20:39,33.25213,-118.24978,090.0 035.0,090.0,035.0,57.000,57.414,,11.1424,,11.1417,,11.1421,33.6937,,33.6949,33.6917,,33.6936,33.6943,3.6382,,3.8709,,3.7078,,3.8999,,,158.406,168.0964,169.0381,161.436,176.2074,170.7719,169.9050,0.0522,,0.1668,0.2085,1.8106,,2.9992,,25.7340,,25.7326,,,,,,,,,,,11.1355,11.1347,0.1455,226.328,58.556,59.675,,,,,,,,,,,,